EW2263 Weather Reports


time (UTC)temp
C
wind
direction
speed
KPH
gust
KPH
rain 1hr
cm
rain 24hr
cm
rain mn
cm
humidity
%
barometer
mb
20260504024517 9 217 0.0 0.0 0.00 0.00 0.00 82 1013.4
20260504023016 10 217 0.0 0.0 0.00 0.00 0.00 80 1013.3
20260504021516 10 217 0.0 0.0 0.00 0.00 0.00 77 1013.1
20260504020017 11 217 0.0 0.0 0.00 0.00 0.00 75 1013.0
20260504014524 11 217 0.0 0.0 0.00 0.00 0.00 72 1012.7
20260504013014 12 217 0.0 0.0 0.00 0.00 0.00 69 1012.6
20260504011514 13 217 0.0 0.0 0.00 0.00 0.00 66 1012.6
20260504010013 13 217 0.0 0.0 0.00 0.00 0.00 65 1012.6
20260504004513 15 217 0.0 0.0 0.00 0.00 0.00 62 1012.4
20260504003011 15 217 0.0 0.0 0.00 0.00 0.00 58 1012.3
20260504001511 16 217 0.0 0.0 0.00 0.00 0.00 56 1012.1
20260504000025 17 217 0.0 0.0 0.00 0.00 0.00 53 1012.0
20260503234509 17 171 0.0 0.0 0.00 0.00 0.00 49 1012.1
20260503233008 18 239 1.6 0.0 0.00 0.00 0.00 49 1012.1
20260503231507 18 171 1.6 0.0 0.00 0.00 0.00 47 1012.1
20260503230023 19 65 1.6 0.0 0.00 0.00 0.00 46 1012.1
20260503224523 20 219 3.2 0.0 0.00 0.00 0.00 44 1012.1
20260503223021 21 205 1.6 0.0 0.00 0.00 0.00 44 1012.2
20260503221520 22 90 3.2 0.0 0.00 0.00 0.00 41 1012.2
20260503220021 22 92 1.6 0.0 0.00 0.00 0.00 38 1012.4
20260503214526 22 84 4.8 0.0 0.00 0.00 0.00 40 1012.4
20260503213017 22 264 3.2 0.0 0.00 0.00 0.00 38 1012.5
20260503211517 21 253 3.2 0.0 0.00 0.00 0.00 43 1012.6
20260503210036 21 107 3.2 0.0 0.00 0.00 0.00 44 1012.7
20260503204514 22 150 4.8 0.0 0.00 0.00 0.00 38 1012.9
20260503203015 22 218 3.2 0.0 0.00 0.00 0.00 42 1013.1
20260503201511 21 167 4.8 0.0 0.00 0.00 0.00 42 1013.4
20260503200012 21 141 3.2 0.0 0.00 0.00 0.00 41 1013.7
20260503194509 21 11 3.2 0.0 0.00 0.00 0.00 41 1013.9
20260503193010 21 145 3.2 0.0 0.00 0.00 0.00 42 1014.2
20260503191506 21 5 4.8 0.0 0.00 0.00 0.00 47 1014.4
20260503190005 20 72 4.8 0.0 0.00 0.00 0.00 44 1014.6
20260503184505 20 107 4.8 0.0 0.00 0.00 0.00 37 1014.8
20260503183004 21 216 4.8 0.0 0.00 0.00 0.00 43 1015.0
20260503181501 20 98 3.2 0.0 0.00 0.00 0.00 45 1014.9
20260503180107 19 163 3.2 0.0 0.00 0.00 0.00 46 1015.1
20260503174558 20 331 4.8 0.0 0.00 0.00 0.00 45 1015.3
20260503173150 18 154 3.2 0.0 0.00 0.00 0.00 50 1015.4
20260503171555 19 112 4.8 0.0 0.00 0.00 0.00 45 1015.8
20260503120113 5 260 0.0 0.0 0.00 0.00 0.00 96 1016.6
20260503110152 2 261 0.0 0.0 0.00 0.00 0.00 92 1015.8
20260503081502 3 261 0.0 0.0 0.00 0.00 0.00 91 1013.9
20260503071557 4 260 0.0 0.0 0.00 0.00 0.00 90 1013.4
20260503054548 5 261 0.0 0.0 0.00 0.00 0.00 89 1013.0
20260503053047 5 260 0.0 0.0 0.00 0.00 0.00 88 1013.0
20260503051545 5 260 0.0 0.0 0.00 0.00 0.00 88 1012.9
20260503050041 5 260 0.0 0.0 0.00 0.00 0.00 88 1012.7
20260503044543 5 261 0.0 0.0 0.00 0.00 0.00 88 1012.7
20260503043039 5 261 0.0 0.0 0.00 0.00 0.00 87 1012.8
20260503041540 6 260 0.0 0.0 0.00 0.00 0.00 86 1012.8
20260503040034 6 319 0.0 0.0 0.00 0.00 0.00 86 1012.6
20260503034532 6 319 0.0 0.0 0.00 0.00 0.00 85 1012.4
20260503033030 6 319 0.0 0.0 0.00 0.00 0.00 84 1012.3
20260503031528 7 319 0.0 0.0 0.00 0.00 0.00 83 1012.1
20260503030028 7 319 0.0 0.0 0.00 0.00 0.00 82 1012.0